FENGYUN 1C DEB, 31456

Orbit data source: Space-Track

FENGYUN 1C DEB, 31456 is space debris in SSO originally from a launch on Mon, 10 May 1999 UTC launched from the Taiyaun Space Center, China (TSC). Fengyun 1C debris stems from the Chinese weather satellite Fengyun-1C, which was intentionally destroyed by a Chinese anti-satellite missile in 2007. This event dramatically increased the amount of space debris, with thousands of trackable fragments posing hazards to satellites and human spaceflight. The Fengyun 1C debris cloud has become a focal point in discussions about space sustainability and the need for international regulations to prevent the creation of new debris.

Loading next visibility...
Identifier
31456, 1999-025BUU
Orbit
SSO
Country
Flag of CNCN / PRC
Related business
Manufacturer
Unknown
Mission
Spacecraft
Bus & Motor
Unknown
Mass
Unknown
Launch date (UTC)
1999-05-10 (27 years ago)
Launch vehicle
Unknown
Launch site
Taiyaun Space Center, China (TSC)
Object type
Payload
Rocket body
Debris
Shape & HBR
Unknown shape, 0.1 m
Radar Cross Section
Small (<0.1 m²)

Expand to show TLE details & history
Last TLE update: 3 days ago

TLE from 3 days ago
0 FENGYUN 1C DEB
1 31456U 99025BUU 25347.53326663  .00004480  00000-0  13308-2 0  9992
2 31456  98.5769  89.8836 0067597 311.9856  47.5588 14.42408216974788
Epoch: 2025-12-13T12:47Z
TLE epoch observation values (Epoch: 2025-12-13T12:47:54.236Z)
Latitude
0.00001°
Longitude
175.44844°
Altitude
721.156 km
Speed
7.512 km/s
True Right ascension
05h 59m 32s
True Declination
0° 00' 00"
Sunlit
Object was in full shadow at epoch
Visualization orbit readout
Latitude
Unknown
Longitude
Unknown
Altitude
Unknown
Speed
Unknown
Apparent Right ascension
Unknown
Apparent Declination
Unknown
Sunlit
N/A
Visualization observer readout
Local Sidereal Time
05:10:11
Azimuth
Unknown
Elevation
Unknown
Doppler factor
Unknown
Orbital elements
Apogee altitude
795.843 km
Perigee altitude
699.507 km
Semi-major axis
7,125.812 km
Eccentricity
0.00676
Inclination
98.5769°
RAAN
89.8836°
Arg. of periapsis
311.9856°
True anomaly
48.1337°
Mean anomaly
47.5588°
Eccentric anomaly
47.84592°
Mean motion
3.60821 °/min
Orbital period
99.77 mins
BSTAR
0.0013308
Loading maneuver chart data...
Computing Atmospheric mass density...

Documentation

Showing up to 5 results
|